Westfield, MA

7:43 PM EST on December 04, 2016 (GMT -0500)
Barnes Municipal

Weather History for KBAF - August, 2013

Change the Weather History Date:

Monday, August 12, 2013

  Actual Average Record
Temperature  
Mean Temperature 70 °F -  
Max Temperature 82 °F 81 °F 96 °F (2016)
Min Temperature 60 °F 59 °F 45 °F (2006)
Cooling Degree Days 6    
Growing Degree Days 20 (Base 50)    
Moisture  
Dew Point 59 °F    
Average Humidity 71    
Maximum Humidity 96    
Minimum Humidity 44    
Precipitation  
Precipitation 0.00 in - - ()
Sea Level Pressure  
Sea Level Pressure 29.98 in    
Wind  
Wind Speed 1 mph (SSE)    
Max Wind Speed 8 mph    
Max Gust Speed -    
Visibility 10 miles    
Events      
Averages and records for this station are not official NWS values.
T = Trace of Precipitation, MM = Missing Value Source: NWS Daily Summary

Daily Weather History Graph

Daily Weather History Graph

Search for Another Location

Airport or City:

Trip Planner

Search our weather history database for the weather conditions in past years. The results will help you decide how hot, cold, wet, or windy it might be!

Date:

Astronomy

Aug. 12, 2013 Rise Set
Actual Time 5:55 AM EDT 7:55 PM EDT
Civil Twilight 5:25 AM EDT 8:25 PM EDT
Nautical Twilight 4:47 AM EDT 9:02 PM EDT
Astronomical Twilight 4:07 AM EDT 9:43 PM EDT
Moon 11:50 AM EDT (8/12) 10:38 PM EDT (8/12)
Length of Visible Light 15h 00m
Length of Day
13h 59m
Waxing Crescent, 31% of the Moon is Illuminated
Aug 12
Waxing Crescent
Aug 14
First Quarter
Aug 20
Full
Aug 28
Last Quarter
Sep 5
New

Hourly Weather History & Observations

Time (EDT) Temp. Heat Index Dew Point Humidity Pressure Visibility Wind Dir Wind Speed Gust Speed Precip Events Conditions
12:53 AM 60.1 °F - 57.9 °F 93% 30.04 in 10.0 mi Calm Calm - N/A   Partly Cloudy
1:53 AM 60.1 °F - 57.9 °F 93% 30.03 in 10.0 mi Calm Calm - N/A   Scattered Clouds
2:53 AM 62.1 °F - 60.1 °F 93% 30.02 in 10.0 mi Calm Calm - N/A   Overcast
3:53 AM 60.1 °F - 57.9 °F 93% 30.02 in 10.0 mi Calm Calm - N/A   Overcast
4:53 AM 60.1 °F - 57.9 °F 93% 30.02 in 10.0 mi North 5.8 mph - N/A   Overcast
5:53 AM 60.1 °F - 59.0 °F 96% 30.03 in 10.0 mi Calm Calm - N/A   Overcast
6:53 AM 60.1 °F - 57.9 °F 93% 30.04 in 10.0 mi Calm Calm - N/A   Clear
7:53 AM 64.9 °F - 60.1 °F 84% 30.04 in 10.0 mi Calm Calm - N/A   Clear
8:53 AM 69.1 °F - 57.9 °F 68% 30.03 in 10.0 mi Calm Calm - N/A   Clear
9:53 AM 72.0 °F - 57.0 °F 59% 30.03 in 10.0 mi Calm Calm - N/A   Clear
10:53 AM 73.9 °F - 55.9 °F 53% 30.02 in 10.0 mi Calm Calm - N/A   Clear
11:53 AM 75.9 °F - 55.9 °F 50% 30.00 in 10.0 mi SE 3.5 mph - N/A   Partly Cloudy
12:53 PM 78.1 °F - 55.9 °F 46% 29.99 in 10.0 mi Variable 4.6 mph - N/A   Scattered Clouds
1:53 PM 80.1 °F 80.4 °F 57.0 °F 45% 29.97 in 10.0 mi SSE 3.5 mph - N/A   Scattered Clouds
2:53 PM 81.0 °F 81.1 °F 57.9 °F 45% 29.96 in 10.0 mi SW 8.1 mph - N/A   Scattered Clouds
3:53 PM 79.0 °F - 60.1 °F 52% 29.95 in 10.0 mi East 3.5 mph - N/A   Mostly Cloudy
3:55 PM 78.8 °F - 60.8 °F 54% 29.95 in 10.0 mi East 5.8 mph - N/A   Mostly Cloudy
4:53 PM 80.1 °F 80.7 °F 59.0 °F 48% 29.94 in 10.0 mi Calm Calm - N/A   Mostly Cloudy
5:53 PM 81.0 °F 81.0 °F 57.0 °F 44% 29.93 in 10.0 mi West 4.6 mph - N/A   Scattered Clouds
6:53 PM 78.1 °F - 62.1 °F 58% 29.92 in 10.0 mi South 4.6 mph - N/A   Clear
7:53 PM 75.0 °F - 61.0 °F 62% 29.92 in 10.0 mi SW 4.6 mph - N/A   Clear
8:53 PM 69.1 °F - 64.0 °F 84% 29.93 in 10.0 mi Calm Calm - N/A   Clear
9:53 PM 66.0 °F - 63.0 °F 90% 29.94 in 10.0 mi SSE 3.5 mph - N/A   Clear
10:53 PM 66.0 °F - 62.1 °F 87% 29.93 in 10.0 mi Calm Calm - N/A   Clear
11:53 PM 64.0 °F - 62.1 °F 93% 29.93 in 10.0 mi Calm Calm - N/A   Clear